Weather History for Point Mugu, CA

Change the Weather History Date:

Monday, January 21, 2013

  Actual Average Record
Temperature  
Mean Temperature 68 °F -  
Max Temperature 82 °F 61 °F 82 °F (2013)
Min Temperature 55 °F 44 °F 37 °F (2002)
Cooling Degree Days 4    
Growing Degree Days 18 (Base 50)    
Moisture  
Dew Point 64 °F    
Average Humidity 84    
Maximum Humidity 89    
Minimum Humidity 80    
Precipitation  
Precipitation 0.00 in - - ()
Sea Level Pressure  
Sea Level Pressure 30.05 in    
Wind  
Wind Speed 14 mph (NE)    
Max Wind Speed 17 mph    
Max Gust Speed 22 mph    
Averages and records for this station are not official NWS values.
T = Trace of Precipitation, MM = Missing Value Source: NWS Daily Summary

Daily Weather History Graph

Daily Weather History Graph

Search for Another Location

Airport:

Trip Planner

Search our weather history database for the weather conditions in past years. The results will help you decide how hot, cold, wet, or windy it might be!

Date:

Astronomy

Jan. 21, 2013 Rise Set
Actual Time 6:59 AM PST 5:16 PM PST
Civil Twilight 6:33 AM PST 5:43 PM PST
Nautical Twilight 6:02 AM PST 6:13 PM PST
Astronomical Twilight 5:32 AM PST 6:43 PM PST
Moon 1:00 PM PST 2:32 AM PST
Length of Visible Light 11h 10m
Length of Day
10h 16m
Waxing Gibbous, 76% of the Moon is Illuminated
Jan 21
Waxing Gibbous
Jan 26
Full
Feb 3
Last Quarter
Feb 9
New
Feb 17
First Quarter

Hourly Weather History & Observations

Time (PST) Temp. Heat Index Dew Point Humidity Pressure Visibility Wind Dir Wind Speed Gust Speed Precip Events Conditions
12:54 AM 64.0 °F - 59.0 °F 84% 30.06 in - ENE 15.0 mph - N/A   Clear
1:54 AM 64.0 °F - 59.0 °F 84% 30.05 in - ENE 15.0 mph - N/A   Clear
2:54 AM 64.0 °F - 59.0 °F 84% 30.04 in - ENE 16.1 mph - N/A   Clear
3:54 AM 64.9 °F - 59.0 °F 81% 30.02 in - ENE 16.1 mph - N/A   Clear
4:54 AM 64.0 °F - 59.0 °F 84% 30.03 in - ENE 12.7 mph 21.9 mph N/A   Clear
5:54 AM 64.9 °F - 59.0 °F 81% 30.03 in - ENE 17.3 mph 21.9 mph N/A   Clear
6:54 AM 64.0 °F - 57.9 °F 80% 30.04 in - ENE 17.3 mph - N/A   Clear
7:54 AM 66.9 °F - 61.0 °F 81% 30.06 in - ENE 17.3 mph - N/A   Clear
8:54 AM 72.0 °F - 66.0 °F 81% 30.08 in - NE 9.2 mph - N/A   Clear
9:54 AM 77.0 °F - 71.1 °F 82% 30.10 in - ENE 12.7 mph - N/A   Clear
10:54 AM 80.1 °F 84.5 °F 73.9 °F 81% 30.11 in - NE 10.4 mph 19.6 mph N/A   Clear
11:54 AM 81.0 °F 87.3 °F 75.9 °F 85% 30.09 in - NE 13.8 mph - N/A   Clear
12:54 PM 82.9 °F 91.8 °F 77.0 °F 82% 30.05 in - NE 16.1 mph 21.9 mph N/A   Clear
1:54 PM 73.0 °F - 69.1 °F 87% 30.05 in - South 16.1 mph - N/A   Clear
2:54 PM 71.1 °F - 66.9 °F 87% 30.04 in - SSE 6.9 mph - N/A   Clear
3:54 PM 79.0 °F - 75.0 °F 88% 30.02 in - NE 12.7 mph 19.6 mph N/A   Clear
4:54 PM 75.9 °F - 71.1 °F 85% 30.00 in - NE 10.4 mph 20.7 mph N/A   Clear
5:54 PM 71.1 °F - 66.0 °F 84% 30.01 in - ENE 5.8 mph - N/A   Clear
6:54 PM 70.0 °F - 64.9 °F 84% 30.02 in - ENE 13.8 mph - N/A   Clear
7:54 PM 69.1 °F - 64.0 °F 84% 30.04 in - ENE 10.4 mph 18.4 mph N/A   Clear
8:54 PM 68.0 °F - 63.0 °F 84% 30.06 in - NNE 8.1 mph - N/A   Clear
9:54 PM 59.0 °F - 54.0 °F 83% 30.07 in - North 9.2 mph - N/A   Clear
10:54 PM 55.0 °F - 52.0 °F 89% 30.07 in - North 6.9 mph - N/A   Clear
11:54 PM 55.9 °F - 51.1 °F 84% 30.06 in - NNE 8.1 mph - N/A   Clear